Stündliche Wetter Otok

Heute, 14 April, Mittwoch

Zeit Temperatur Niederschläge Wind Luftdruck Luftfeuchtigkeit
00:00 +2°C° 0 mm 2 m/S 750 mmHg 78%
01:00 +2°C° 0 mm 2 m/S 750 mmHg 79%
02:00 +1°C° 0 mm 3 m/S 750 mmHg 81%
03:00 0°C° 0 mm 3 m/S 750 mmHg 82%
04:00 0°C° 0 mm 3 m/S 750 mmHg 83%
05:00 0°C° 0 mm 3 m/S 750 mmHg 82%
06:00 0°C° 0 mm 3 m/S 751 mmHg 82%
07:00 0°C° 0 mm 4 m/S 751 mmHg 81%
08:00 +1°C° 0 mm 4 m/S 751 mmHg 74%
09:00 +3°C° 0 mm 4 m/S 751 mmHg 68%
10:00 +3°C° 0 mm 5 m/S 750 mmHg 62%
11:00 +3°C° 0.1 mm 5 m/S 750 mmHg 58%
12:00 +5°C° 0.1 mm 5 m/S 750 mmHg 54%
13:00 +6°C° 0.1 mm 5 m/S 750 mmHg 51%
14:00 +6°C° 0.1 mm 5 m/S 750 mmHg 50%
15:00 +6°C° 0.1 mm 5 m/S 749 mmHg 49%
16:00 +6°C° 0.1 mm 4 m/S 749 mmHg 48%
17:00 +5°C° 0 mm 4 m/S 749 mmHg 53%
18:00 +4°C° 0 mm 3 m/S 749 mmHg 59%
19:00 +4°C° 0 mm 2 m/S 749 mmHg 64%
20:00 +3°C° 0 mm 2 m/S 750 mmHg 67%
21:00 +3°C° 0 mm 2 m/S 750 mmHg 69%
22:00 +2°C° 0 mm 2 m/S 750 mmHg 72%
23:00 +2°C° 0 mm 2 m/S 750 mmHg 74%

Morgen, 15 April, Donnerstag

Zeit Temperatur Niederschläge Wind Luftdruck Luftfeuchtigkeit
00:00 +2°C° 0 mm 2 m/S 750 mmHg 75%
01:00 +1°C° 0 mm 2 m/S 750 mmHg 77%
02:00 +1°C° 0 mm 2 m/S 750 mmHg 80%
03:00 +1°C° 0 mm 2 m/S 750 mmHg 82%
04:00 -1°C° 0 mm 2 m/S 750 mmHg 85%
05:00 +1°C° 0.1 mm 2 m/S 750 mmHg 83%
06:00 0°C° 0.1 mm 3 m/S 750 mmHg 81%
07:00 0°C° 0.1 mm 3 m/S 750 mmHg 80%
08:00 +1°C° 0 mm 3 m/S 750 mmHg 78%
09:00 +1°C° 0 mm 4 m/S 750 mmHg 76%
10:00 +1°C° 0 mm 4 m/S 750 mmHg 74%
11:00 +1°C° 0.3 mm 4 m/S 750 mmHg 78%
12:00 +1°C° 0.3 mm 5 m/S 750 mmHg 83%
13:00 +1°C° 0.3 mm 5 m/S 750 mmHg 88%
14:00 +1°C° 0.4 mm 5 m/S 750 mmHg 89%
15:00 +1°C° 0.4 mm 5 m/S 749 mmHg 91%
16:00 0°C° 0.4 mm 4 m/S 749 mmHg 93%
17:00 0°C° 0.5 mm 4 m/S 749 mmHg 94%
18:00 0°C° 0.5 mm 4 m/S 749 mmHg 96%
19:00 -1°C° 0.5 mm 4 m/S 749 mmHg 97%
20:00 -1°C° 0.7 mm 4 m/S 748 mmHg 98%
21:00 -1°C° 0.7 mm 4 m/S 748 mmHg 98%
22:00 -1°C° 0.7 mm 4 m/S 748 mmHg 98%
23:00 0°C° 0.5 mm 3 m/S 748 mmHg 98%

übermorgen, 16 April, Freitag

Zeit Temperatur Niederschläge Wind Luftdruck Luftfeuchtigkeit
00:00 0°C° 0.5 mm 3 m/S 748 mmHg 98%
01:00 0°C° 0.5 mm 3 m/S 747 mmHg 98%
02:00 0°C° 0.6 mm 3 m/S 747 mmHg 98%
03:00 0°C° 0.6 mm 3 m/S 747 mmHg 98%
04:00 0°C° 0.6 mm 3 m/S 747 mmHg 99%
05:00 +1°C° 0.6 mm 2 m/S 747 mmHg 99%
06:00 +1°C° 0.6 mm 2 m/S 748 mmHg 99%
07:00 +1°C° 0.6 mm 2 m/S 748 mmHg 99%
08:00 +2°C° 0.2 mm 2 m/S 748 mmHg 97%
09:00 +2°C° 0.2 mm 2 m/S 748 mmHg 96%
10:00 +3°C° 0.2 mm 2 m/S 748 mmHg 95%
11:00 +3°C° 0 mm 2 m/S 748 mmHg 94%
12:00 +4°C° 0 mm 2 m/S 748 mmHg 92%
13:00 +4°C° 0 mm 2 m/S 748 mmHg 90%
14:00 +5°C° 0 mm 2 m/S 748 mmHg 90%
15:00 +4°C° 0 mm 3 m/S 748 mmHg 90%
16:00 +4°C° 0 mm 3 m/S 748 mmHg 90%
17:00 +5°C° 0 mm 2 m/S 748 mmHg 91%
18:00 +4°C° 0 mm 2 m/S 748 mmHg 93%
19:00 +4°C° 0 mm 2 m/S 748 mmHg 95%
20:00 +3°C° 0 mm 2 m/S 748 mmHg 95%
21:00 +4°C° 0 mm 1 m/S 748 mmHg 96%
22:00 +3°C° 0 mm 0 m/S 748 mmHg 97%
23:00 +4°C° 0 mm 1 m/S 748 mmHg 97%

17 April, Samstag

Zeit Temperatur Niederschläge Wind Luftdruck Luftfeuchtigkeit
00:00 +4°C° 0 mm 1 m/S 748 mmHg 98%
01:00 +4°C° 0 mm 1 m/S 748 mmHg 98%
02:00 +4°C° 0.1 mm 1 m/S 748 mmHg 98%
03:00 +4°C° 0.1 mm 1 m/S 748 mmHg 98%
04:00 +4°C° 0.1 mm 1 m/S 748 mmHg 98%
05:00 +4°C° 0.2 mm 1 m/S 748 mmHg 98%
06:00 +4°C° 0.2 mm 1 m/S 748 mmHg 98%
07:00 +4°C° 0.2 mm 1 m/S 748 mmHg 98%
08:00 +5°C° 0 mm 1 m/S 748 mmHg 97%
09:00 +5°C° 0 mm 1 m/S 748 mmHg 95%
10:00 +6°C° 0 mm 1 m/S 748 mmHg 94%
11:00 +5°C° 0 mm 2 m/S 748 mmHg 94%
12:00 +5°C° 0 mm 2 m/S 748 mmHg 93%
13:00 +6°C° 0 mm 2 m/S 748 mmHg 93%
14:00 +6°C° 0 mm 2 m/S 748 mmHg 93%
15:00 +6°C° 0 mm 2 m/S 748 mmHg 94%
16:00 +6°C° 0 mm 2 m/S 747 mmHg 94%
17:00 +6°C° 0.1 mm 2 m/S 747 mmHg 95%
18:00 +6°C° 0.1 mm 2 m/S 747 mmHg 96%
19:00 +7°C° 0.1 mm 1 m/S 747 mmHg 97%
20:00 +7°C° 0.1 mm 1 m/S 747 mmHg 98%
21:00 +7°C° 0.1 mm 1 m/S 747 mmHg 98%
22:00 +6°C° 0.1 mm 1 m/S 747 mmHg 98%
23:00 +6°C° 0 mm 1 m/S 747 mmHg 98%

18 April, Sonntag

Zeit Temperatur Niederschläge Wind Luftdruck Luftfeuchtigkeit
00:00 +6°C° 0 mm 1 m/S 747 mmHg 99%
01:00 +6°C° 0 mm 1 m/S 747 mmHg 99%
02:00 +6°C° 0.1 mm 1 m/S 747 mmHg 99%
03:00 +6°C° 0.1 mm 1 m/S 746 mmHg 99%
04:00 +6°C° 0.1 mm 2 m/S 746 mmHg 99%
05:00 +6°C° 0.1 mm 2 m/S 746 mmHg 98%
06:00 +6°C° 0.1 mm 2 m/S 746 mmHg 97%
07:00 +6°C° 0.1 mm 2 m/S 746 mmHg 97%
08:00 +7°C° 0 mm 2 m/S 746 mmHg 94%
09:00 +7°C° 0 mm 2 m/S 747 mmHg 91%
10:00 +8°C° 0 mm 2 m/S 747 mmHg 89%
11:00 +9°C° 0.2 mm 2 m/S 747 mmHg 83%
12:00 +10°C° 0.2 mm 2 m/S 746 mmHg 77%
13:00 +12°C° 0.2 mm 2 m/S 746 mmHg 71%
14:00 +11°C° 0.2 mm 3 m/S 746 mmHg 73%
15:00 +10°C° 0.2 mm 3 m/S 746 mmHg 74%
16:00 +10°C° 0.2 mm 3 m/S 746 mmHg 76%
17:00 +9°C° 0.1 mm 3 m/S 746 mmHg 81%
18:00 +8°C° 0.1 mm 2 m/S 746 mmHg 85%
19:00 +7°C° 0.1 mm 2 m/S 746 mmHg 90%
20:00 +7°C° 0 mm 2 m/S 746 mmHg 90%
21:00 +7°C° 0 mm 1 m/S 747 mmHg 91%
22:00 +7°C° 0 mm 1 m/S 747 mmHg 91%
23:00 +6°C° 0 mm 1 m/S 747 mmHg 91%

19 April, Montag

Zeit Temperatur Niederschläge Wind Luftdruck Luftfeuchtigkeit
00:00 +6°C° 0 mm 1 m/S 747 mmHg 91%
01:00 +6°C° 0 mm 1 m/S 747 mmHg 91%
02:00 +6°C° 0 mm 1 m/S 747 mmHg 91%
03:00 +6°C° 0 mm 1 m/S 746 mmHg 91%
04:00 +6°C° 0 mm 1 m/S 746 mmHg 91%
05:00 +7°C° 0 mm 1 m/S 746 mmHg 90%
06:00 +8°C° 0 mm 1 m/S 746 mmHg 89%
07:00 +8°C° 0 mm 1 m/S 746 mmHg 88%
08:00 +9°C° 0.1 mm 1 m/S 746 mmHg 84%
09:00 +11°C° 0.1 mm 1 m/S 746 mmHg 80%
10:00 +12°C° 0.1 mm 2 m/S 746 mmHg 76%
11:00 +12°C° 0.3 mm 2 m/S 745 mmHg 75%
12:00 +12°C° 0.3 mm 2 m/S 745 mmHg 75%
13:00 +12°C° 0.3 mm 2 m/S 745 mmHg 75%
14:00 +12°C° 0.3 mm 2 m/S 745 mmHg 79%
15:00 +10°C° 0.3 mm 2 m/S 744 mmHg 83%
16:00 +10°C° 0.3 mm 2 m/S 744 mmHg 87%
17:00 +9°C° 0.1 mm 2 m/S 744 mmHg 89%
18:00 +8°C° 0.1 mm 2 m/S 744 mmHg 92%
19:00 +9°C° 0.1 mm 1 m/S 744 mmHg 94%
20:00 +8°C° 0.1 mm 2 m/S 744 mmHg 94%
21:00 +7°C° 0.1 mm 2 m/S 744 mmHg 95%
22:00 +7°C° 0.1 mm 2 m/S 744 mmHg 96%
23:00 +7°C° 0.2 mm 2 m/S 744 mmHg 96%
Mehr zeigen

Wir brauchen deine Erlaubnis

Meteoprog und unser Service Anbieter werden persönliche Daten aufbewahren, so wie Cookies, Geräte Bezeichnung oder ähnliche Technologien von deinem Gerät und Prozess, so wie Persönliche Daten Inhalte und Werbungen, genauso wie social Media und den Verkehr zu analysieren.

  • Aufbewahrung und/oder Zugang zu deiner Geräte Informationen.

    Cookies, Geräte Bezeichnung oder andere Informationen, können aufbewahrt oder Zugang zu deinem Gerät erhalten, für den Grund, der oben angegeben wird.

  • Personalisierte Werbung und Inhalte, Messungen, Einblick in das Publikum und Produkt Entwicklung.

    Werbungen und Inhalte können personalisiert werden, basierend auf ein Profil. Mehr Daten können besser personalisierte Werbungen und Inhalte hinzufügen. Werbung und Inhalte können gezeigt und gemessen werden. Einblicke über das Publikum, welche die Werbung gesehen haben und den Inhalt, können abgeleitet werden. So wie Daten können genutzt werden, um es zu verbessern oder die Benutzer Erfahrung zu verbessern das System und die Software.

Wenn du “Ich stimme zu” klickst, erlaubst du uns, die Cookies zu benutzen die Geräte Bezeichnung, den Web oder ähnliche Technologien zu benutzen. Deine Settings, können in deinem Gerät bei deinem Browser geändert werden.

Für den bestimmten Zweck, berechtigten Interessen beruhen darauf, mehr als auf den Inhalt. Du kannst mehr darüber in unseren Privaten und Cookie Politik lesen.